Arctic - Eastern Arctic: Past 24 Hour Conditions

 

Gjoa Haven Airport

05:00 AM MDT 01 September 2014
This table is a summary of hourly weather conditions for the past 24 hours.
Date / Time
(MDT)
Wind(knots) Conditions Visibility(km) Pressure(kPa) Air tempC) Relative humidity(%) Dew pointC)
01 September 2014
5:00 WNW 5 Mist 3 101.3 3 100 3
4:00 W 5 Fog 0.6 101.3 3 100 3
3:00 WSW 6 Fog 0.4 101.3 3 100 3
2:00 SW 5 Mist 2 101.2 3 100 3
1:00 W 5 Fog 0.8 101.2 4 100 4
0:00 WNW 7 Fog 0.4 101.2 3 100 3
31 August 2014
23:00 W 8 Fog 0.4 101.2 3 100 3
22:00 W 10 Fog 0.4 101.2 2 100 2
21:00 W 10 Fog 0.4 101.2 3 100 3
20:00 W 11 Mainly Sunny 16 101.3 4 96 3
19:00 W 9 Sunny 16 101.2 6 90 4
18:00 WSW 10 Sunny 16 101.2 7 88 5
17:00 W 11 Sunny 16 101.2 8 83 5
16:00 WNW 10 Mostly Cloudy 16 101.2 10 74 5
15:00 SW 9 Mostly Cloudy 16 101.2 8 87 5
14:00 WNW 6 Mainly Sunny 16 101.2 9 77 5
13:00 WNW 8 Sunny 16 101.1 8 79 5
12:00 W 10 Mainly Sunny 16 101.1 7 84 5
11:00 WNW 11 Mostly Cloudy 16 101.1 6 92 5
10:00 W 11 Mist 2 101.2 5 100 5
9:00 W 11 Fog 0.2 101.2 4 100 4
8:00 W 9 Fog 0.2 101.1 3 100 3
7:00 WNW 10 Fog 0.4 101.1 2 100 2
6:00 W 8 Fog 0.2 101.1 1 100 1
5:00 W 6 Mist 2 101.1 1 100 1
 
Map of Arctic - Eastern Arctic marine weather areas Baker Lake Airport Chesterfield Inlet Airport Coral Harbour Airport Gjoa Haven Airport Kugaaruk Airport Rankin Inlet Airport Shepherd Bay Airport Whale Cove Airport Arctic Bay Brevoort Island Qikiqtarjuaq Airport Cape Dorset Airport Cape Dyer Cape Hooper Clyde Airport Grise Fiord Airport Hall Beach Airport Igloolik Airport Iqaluit Airport Longstaff Bluff Pangnirtung Airport Pond Inlet Airport Repulse Bay Airport Resolute Airport Resolution Island Rowley Island Airport Taloyoak Airport Wager Bay Akulivik Airport Ivujivik Airport Puvirnituq Airport Kangiqsujuaq Airport Kangirsuk Airport Quaqtaq Airport Tasiujaq Airport Cape Kakkiviak Cape Kiglapait Nain Airport Saglek Cape Mercy Kimmirut Airport Aupaluk Airport Salluit Airport Kangiqsualujjuaq Airport Fort Ross
Legend: buoyBuoy land stationLand Station